Robstown, TX

2:53 PM CDT on April 21, 2018 (GMT -0500)
Robstown

Weather History for KRBO - May, 2013

Change the Weather History Date:

Wednesday, May 29, 2013

  Actual Average (KCRP) Record (KCRP)
Temperature  
Mean Temperature 84 °F -  
Max Temperature 88 °F 87 °F 95 °F (2010)
Min Temperature 79 °F 70 °F 61 °F (1973)
Cooling Degree Days 18    
Growing Degree Days 34 (Base 50)    
Moisture  
Dew Point 73 °F    
Average Humidity 73    
Maximum Humidity 86    
Minimum Humidity 58    
Precipitation  
Precipitation 0.00 in - - ()
Sea Level Pressure  
Sea Level Pressure 29.79 in    
Wind  
Wind Speed 20 mph (SE)    
Max Wind Speed 32 mph    
Max Gust Speed 37 mph    
Visibility 10 miles    
Events      
Averages and records for this station are not official NWS values.
T = Trace of Precipitation, MM = Missing Value Source: NWS Daily Summary

Daily Weather History Graph

Daily Weather History Graph

Search for Another Location

Airport or City:

Astronomy

May. 29, 2013 Rise Set
Actual Time 6:35 AM CDT 8:21 PM CDT
Civil Twilight 6:09 AM CDT 8:47 PM CDT
Nautical Twilight 5:38 AM CDT 9:18 PM CDT
Astronomical Twilight 5:04 AM CDT 9:51 PM CDT
Moon No Moon Rise 11:22 AM CDT (5/29)
Length of Visible Light 14h 37m
Length of Day
13h 45m
Waning Gibbous, 73% of the Moon is Illuminated
May 29
Waning Gibbous
May 31
Last Quarter
Jun 8
New
Jun 16
First Quarter
Jun 23
Full

Hourly Weather History & Observations

Time (CDT) Temp. Heat Index Dew Point Humidity Pressure Visibility Wind Dir Wind Speed Gust Speed Precip Events Conditions
12:15 AM 80.1 °F 84.4 °F 73.4 °F 80% 29.81 in 10.0 mi SE 20.7 mph 26.5 mph N/A   Mostly Cloudy
12:35 AM 80.2 °F 84.7 °F 73.4 °F 80% 29.82 in 10.0 mi SE 19.6 mph 25.3 mph N/A   Overcast
12:55 AM 80.4 °F 85.0 °F 73.2 °F 79% 29.82 in 10.0 mi SSE 20.7 mph 27.6 mph N/A   Overcast
1:15 AM 80.2 °F 84.7 °F 73.4 °F 80% 29.82 in 10.0 mi SSE 19.6 mph 26.5 mph N/A   Mostly Cloudy
1:35 AM 80.6 °F 85.4 °F 73.4 °F 79% 29.83 in 10.0 mi SE 19.6 mph - N/A   Overcast
1:55 AM 80.6 °F 85.4 °F 73.6 °F 79% 29.83 in 10.0 mi SSE 21.9 mph 27.6 mph N/A   Overcast
2:15 AM 80.6 °F 85.4 °F 73.6 °F 79% 29.83 in 10.0 mi SSE 20.7 mph 24.2 mph N/A   Overcast
2:35 AM 80.6 °F 85.4 °F 73.6 °F 79% 29.83 in 10.0 mi SSE 16.1 mph 24.2 mph N/A   Overcast
2:55 AM 80.6 °F 85.4 °F 73.4 °F 79% 29.83 in 10.0 mi SSE 19.6 mph 24.2 mph N/A   Overcast
3:15 AM 80.6 °F 85.4 °F 73.6 °F 79% 29.83 in 10.0 mi SSE 16.1 mph 24.2 mph N/A   Overcast
3:35 AM 80.6 °F 85.5 °F 73.8 °F 80% 29.84 in 10.0 mi SE 15.0 mph 19.6 mph N/A   Overcast
3:55 AM 80.2 °F 84.9 °F 73.8 °F 81% 29.83 in 10.0 mi SE 11.5 mph 19.6 mph N/A   Mostly Cloudy
4:15 AM 80.1 °F 84.5 °F 73.8 °F 81% 29.83 in 10.0 mi SE 15.0 mph - N/A   Mostly Cloudy
4:35 AM 79.9 °F - 73.8 °F 81% 29.82 in 10.0 mi SE 15.0 mph - N/A   Mostly Cloudy
4:55 AM 80.1 °F 84.5 °F 73.9 °F 81% 29.82 in 10.0 mi SE 15.0 mph - N/A   Overcast
5:15 AM 80.1 °F 84.5 °F 73.8 °F 81% 29.82 in 10.0 mi SE 13.8 mph 17.3 mph N/A   Overcast
5:35 AM 79.9 °F - 73.8 °F 81% 29.82 in 10.0 mi SE 13.8 mph 19.6 mph N/A   Mostly Cloudy
5:55 AM 79.9 °F - 73.8 °F 81% 29.83 in 10.0 mi SE 13.8 mph - N/A   Mostly Cloudy
6:15 AM 79.9 °F - 73.9 °F 82% 29.84 in 10.0 mi SSE 10.4 mph - N/A   Mostly Cloudy
6:35 AM 79.2 °F - 74.5 °F 86% 29.84 in 10.0 mi SE 9.2 mph - N/A   Light Drizzle
6:55 AM 79.0 °F - 74.5 °F 86% 29.83 in 10.0 mi SSE 15.0 mph 20.7 mph N/A   Overcast
7:15 AM 79.0 °F - 74.5 °F 86% 29.83 in 10.0 mi SSE 15.0 mph - N/A   Mostly Cloudy
7:35 AM 79.2 °F - 74.7 °F 86% 29.82 in 10.0 mi SSE 15.0 mph - N/A   Scattered Clouds
7:55 AM 80.6 °F 86.0 °F 75.0 °F 83% 29.84 in 10.0 mi SSE 16.1 mph 20.7 mph N/A   Clear
8:15 AM 81.7 °F 87.8 °F 74.5 °F 79% 29.84 in 10.0 mi SSE 16.1 mph 25.3 mph N/A   Scattered Clouds
8:35 AM 81.7 °F 87.3 °F 73.8 °F 77% 29.84 in 10.0 mi SSE 15.0 mph 23.0 mph N/A   Scattered Clouds
8:55 AM 82.2 °F 88.0 °F 73.6 °F 75% 29.85 in 10.0 mi SSE 18.4 mph 24.2 mph N/A   Scattered Clouds
9:15 AM 82.6 °F 88.3 °F 73.2 °F 73% 29.85 in 10.0 mi SSE 19.6 mph 25.3 mph N/A   Scattered Clouds
9:35 AM 82.8 °F 88.4 °F 73.0 °F 72% 29.84 in 10.0 mi SSE 15.0 mph 23.0 mph N/A   Scattered Clouds
9:55 AM 82.6 °F 88.1 °F 72.7 °F 72% 29.84 in 10.0 mi SSE 19.6 mph 26.5 mph N/A   Scattered Clouds
10:15 AM 82.4 °F 87.9 °F 72.9 °F 73% 29.81 in 10.0 mi SSE 20.7 mph 26.5 mph N/A   Scattered Clouds
10:35 AM 82.6 °F 88.1 °F 72.9 °F 72% 29.82 in 10.0 mi SSE 23.0 mph 27.6 mph N/A   Scattered Clouds
10:55 AM 82.6 °F 88.3 °F 73.2 °F 73% 29.81 in 10.0 mi SSE 19.6 mph 28.8 mph N/A   Mostly Cloudy
11:15 AM 83.3 °F 89.3 °F 72.9 °F 71% 29.79 in 10.0 mi SSE 18.4 mph 26.5 mph N/A   Scattered Clouds
11:35 AM 83.3 °F 89.0 °F 72.5 °F 70% 29.80 in 10.0 mi SSE 23.0 mph 33.4 mph N/A   Scattered Clouds
11:55 AM 83.8 °F 89.8 °F 72.5 °F 69% 29.80 in 10.0 mi SSE 25.3 mph 32.2 mph N/A   Scattered Clouds
12:15 PM 84.6 °F 90.7 °F 72.5 °F 67% 29.80 in 10.0 mi SSE 21.9 mph 27.6 mph N/A   Mostly Cloudy
12:35 PM 84.7 °F 90.4 °F 72.0 °F 65% 29.81 in 10.0 mi SSE 25.3 mph 29.9 mph N/A   Mostly Cloudy
12:55 PM 85.1 °F 91.5 °F 72.5 °F 66% 29.79 in 10.0 mi SSE 21.9 mph 29.9 mph N/A   Scattered Clouds
1:15 PM 84.7 °F 91.0 °F 72.5 °F 67% 29.78 in 10.0 mi SSE 24.2 mph 31.1 mph N/A   Scattered Clouds
1:35 PM 84.6 °F 90.7 °F 72.5 °F 67% 29.76 in 10.0 mi SE 28.8 mph 35.7 mph N/A   Scattered Clouds
1:55 PM 85.5 °F 91.8 °F 72.5 °F 65% 29.76 in 10.0 mi SE 25.3 mph 31.1 mph N/A   Scattered Clouds
2:15 PM 86.0 °F 92.6 °F 72.5 °F 64% 29.75 in 10.0 mi SE 32.2 mph 35.7 mph N/A   Scattered Clouds
2:35 PM 88.2 °F 95.5 °F 72.9 °F 60% 29.76 in 10.0 mi SSE 29.9 mph 35.7 mph N/A   Scattered Clouds
2:55 PM 88.5 °F 95.8 °F 72.7 °F 59% 29.76 in 10.0 mi SSE 25.3 mph 36.8 mph N/A   Clear
3:15 PM 87.6 °F 94.8 °F 72.5 °F 61% 29.75 in 10.0 mi SSE 27.6 mph 34.5 mph N/A   Scattered Clouds
3:35 PM 86.5 °F 92.9 °F 72.0 °F 62% 29.75 in 10.0 mi SSE 26.5 mph 35.7 mph N/A   Scattered Clouds
3:55 PM 86.2 °F 92.6 °F 72.1 °F 63% 29.74 in 10.0 mi SSE 23.0 mph 34.5 mph N/A   Mostly Cloudy
4:15 PM 87.8 °F 94.7 °F 72.3 °F 60% 29.74 in 10.0 mi SE 28.8 mph 34.5 mph N/A   Mostly Cloudy
4:35 PM 87.1 °F 93.2 °F 71.6 °F 60% 29.74 in 10.0 mi SSE 26.5 mph 33.4 mph N/A   Mostly Cloudy
4:55 PM 88.0 °F 94.7 °F 72.0 °F 59% 29.73 in 10.0 mi SE 28.8 mph 34.5 mph N/A   Scattered Clouds
5:15 PM 88.7 °F 95.7 °F 72.3 °F 58% 29.73 in 10.0 mi SE 28.8 mph 34.5 mph N/A   Scattered Clouds
5:35 PM 87.8 °F 94.7 °F 72.5 °F 60% 29.73 in 10.0 mi SE 27.6 mph 36.8 mph N/A   Clear
5:55 PM 87.3 °F 94.0 °F 72.1 °F 61% 29.72 in 10.0 mi SE 29.9 mph 34.5 mph N/A   Clear
6:15 PM 86.9 °F 93.3 °F 71.8 °F 61% 29.72 in 10.0 mi SE 28.8 mph 34.5 mph N/A   Scattered Clouds
6:35 PM 86.5 °F 92.5 °F 71.8 °F 61% 29.72 in 10.0 mi SE 28.8 mph 33.4 mph N/A   Scattered Clouds
6:55 PM 86.0 °F 92.2 °F 72.1 °F 63% 29.73 in 10.0 mi SE 26.5 mph 32.2 mph N/A   Scattered Clouds
7:15 PM 85.1 °F 91.5 °F 72.7 °F 66% 29.74 in 10.0 mi SE 24.2 mph 31.1 mph N/A   Mostly Cloudy
7:35 PM 84.2 °F 90.3 °F 72.7 °F 68% 29.74 in 10.0 mi SSE 24.2 mph 28.8 mph N/A   Mostly Cloudy
7:55 PM 83.3 °F 89.3 °F 72.9 °F 71% 29.74 in 10.0 mi SSE 21.9 mph - N/A   Mostly Cloudy
8:15 PM 82.6 °F 88.6 °F 73.4 °F 74% 29.75 in 10.0 mi SE 21.9 mph 28.8 mph N/A   Mostly Cloudy
8:35 PM 81.9 °F 87.3 °F 73.4 °F 75% 29.75 in 10.0 mi SE 19.6 mph 27.6 mph N/A   Mostly Cloudy
8:55 PM 81.5 °F 86.9 °F 73.6 °F 77% 29.75 in 10.0 mi SE 20.7 mph 26.5 mph N/A   Mostly Cloudy
9:15 PM 81.1 °F 86.4 °F 73.6 °F 78% 29.76 in 10.0 mi SE 18.4 mph - N/A   Mostly Cloudy
9:35 PM 81.1 °F 86.6 °F 73.9 °F 79% 29.76 in 10.0 mi SE 18.4 mph - N/A   Mostly Cloudy
9:55 PM 80.8 °F 85.8 °F 73.8 °F 79% 29.75 in 10.0 mi SE 20.7 mph 26.5 mph N/A   Overcast
10:15 PM 81.0 °F 86.2 °F 73.9 °F 79% 29.76 in 10.0 mi SE 19.6 mph 26.5 mph N/A   Overcast
10:35 PM 81.0 °F 86.2 °F 73.9 °F 79% 29.78 in 10.0 mi SE 21.9 mph 25.3 mph N/A   Overcast
10:55 PM 80.8 °F 85.9 °F 73.9 °F 80% 29.79 in 10.0 mi SE 17.3 mph 23.0 mph N/A   Mostly Cloudy
11:15 PM 81.0 °F 86.3 °F 74.1 °F 80% 29.79 in 10.0 mi SE 18.4 mph - N/A   Overcast
11:35 PM 80.6 °F 85.7 °F 74.3 °F 81% 29.79 in 10.0 mi SE 16.1 mph - N/A   Mostly Cloudy
11:55 PM 80.6 °F 85.7 °F 74.3 °F 81% 29.79 in 10.0 mi SE 17.3 mph 20.7 mph N/A   Mostly Cloudy